TimeEST,TemperatureF,Dew PointF,Humidity,Sea Level PressureIn,VisibilityMPH,Wind Direction,Wind SpeedMPH,Gust SpeedMPH,PrecipitationIn,Events,Conditions,WindDirDegrees,DateUTC
12:52 AM,39.0,19.9,46,30.45,10.0,Variable,3.5,-,N/A,,Clear,0,2012-11-18 05:52:00
1:52 AM,37.9,21.0,51,30.45,10.0,East,8.1,-,N/A,,Clear,90,2012-11-18 06:52:00
2:52 AM,37.0,21.9,54,30.45,10.0,ENE,8.1,-,N/A,,Clear,70,2012-11-18 07:52:00
3:52 AM,36.0,21.0,55,30.45,10.0,East,5.8,-,N/A,,Clear,90,2012-11-18 08:52:00
4:52 AM,34.0,21.9,61,30.47,10.0,East,4.6,-,N/A,,Clear,100,2012-11-18 09:52:00
5:21 AM,35.6,23.0,60,30.47,10.0,East,6.9,-,N/A,,Mostly Cloudy,90,2012-11-18 10:21:00
5:52 AM,36.0,26.1,67,30.50,10.0,East,8.1,-,N/A,,Overcast,100,2012-11-18 10:52:00
6:52 AM,37.0,27.0,67,30.50,10.0,East,6.9,-,N/A,,Overcast,90,2012-11-18 11:52:00
7:52 AM,37.9,28.0,68,30.51,10.0,East,6.9,-,N/A,,Overcast,90,2012-11-18 12:52:00
8:42 AM,39.2,28.4,65,30.48,10.0,Variable,6.9,-,N/A,,Scattered Clouds,0,2012-11-18 13:42:00
8:52 AM,42.1,30.0,62,30.49,10.0,East,9.2,-,N/A,,Scattered Clouds,100,2012-11-18 13:52:00
9:07 AM,42.8,30.2,61,30.48,10.0,East,8.1,-,N/A,,Mostly Cloudy,100,2012-11-18 14:07:00
9:41 AM,44.6,30.2,57,30.47,10.0,ESE,8.1,-,N/A,,Scattered Clouds,110,2012-11-18 14:41:00
9:52 AM,45.0,32.0,60,30.48,10.0,Variable,6.9,-,N/A,,Partly Cloudy,0,2012-11-18 14:52:00
10:52 AM,48.0,33.1,56,30.48,10.0,East,8.1,21.9,N/A,,Clear,100,2012-11-18 15:52:00
11:52 AM,50.0,34.0,54,30.45,10.0,Variable,6.9,16.1,N/A,,Clear,0,2012-11-18 16:52:00
12:52 PM,50.0,33.1,52,30.43,10.0,Variable,6.9,-,N/A,,Clear,0,2012-11-18 17:52:00
1:52 PM,52.0,33.1,49,30.41,10.0,Variable,6.9,-,N/A,,Clear,0,2012-11-18 18:52:00
2:52 PM,51.1,32.0,48,30.41,10.0,SE,9.2,-,N/A,,Clear,140,2012-11-18 19:52:00
3:52 PM,50.0,32.0,50,30.41,10.0,East,5.8,-,N/A,,Clear,100,2012-11-18 20:52:00
4:52 PM,48.0,32.0,54,30.43,10.0,Calm,Calm,-,N/A,,Clear,0,2012-11-18 21:52:00
5:52 PM,45.0,33.1,63,30.43,10.0,Calm,Calm,-,N/A,,Clear,0,2012-11-18 22:52:00
6:52 PM,44.1,33.1,65,30.44,10.0,SE,5.8,-,N/A,,Clear,130,2012-11-18 23:52:00
7:52 PM,43.0,32.0,65,30.45,10.0,East,3.5,-,N/A,,Clear,90,2012-11-19 00:52:00
8:52 PM,42.1,32.0,67,30.43,10.0,East,5.8,-,N/A,,Clear,100,2012-11-19 01:52:00
9:52 PM,41.0,30.9,67,30.43,10.0,East,4.6,-,N/A,,Clear,90,2012-11-19 02:52:00
10:52 PM,39.9,30.0,68,30.42,10.0,East,3.5,-,N/A,,Clear,90,2012-11-19 03:52:00
11:52 PM,39.0,28.9,67,30.40,10.0,East,4.6,-,N/A,,Clear,90,2012-11-19 04:52:00